Find Starlink 33576

NORAD ID: 62775 Int'l Des: 2025-015 Owner: SPXS Country: US Constellation: starlink operational
LEOCIRCULAR

实时位置

正在加载3D地球...

关于 Starlink 33576

正在加载描述...

即将过境

Passes for default location (London). Set your location on the main map for personalized predictions.

高度历史

Loading altitude history...

两行轨道根数

1 62775U 25015T 26127.09022272 .00028240 00000-0 84415-3 0 9993
2 62775 53.1605 51.1133 0001400 106.5560 253.5596 15.34386698 73368
Epoch: May 7, 2026 • Age: 8 hours

当前状态

高度 465.6 km
速度 7.64 km/s
星下点 41.32°N, 165.45°E
发射日期 Jan 21, 2025
运行时间 1.2 years
类型 internet

技术详情

分类 Payload
质量 575.00 kg
干质量 530.00 kg
总质量 575.00 kg
长度 0.30 m
直径 4.10 m
跨度 29.00 m
形状 Box + pan
制造商 SPXS
平台类型 Starlink V2MO
阶段状态 In Orbit
所有者/国家 SPXS/US

Most Searched